This is the latest recevied weather packets stored in our database for station/object KC3ULW-13. If no packets are shown the sender has not sent any weather packets the latest 10 day(s).
| Time | Temp. | Humidity | Pressure | Rain* | Wind** | Luminosity | Snow |
|---|---|---|---|---|---|---|---|
| 1777920813 | 22.78° C | 45% | 1010.4 hPa | 0 mm | - | 270 W/m² | - |
| 1777920509 | 22.78° C | 45% | 1010.4 hPa | 0 mm | - | 217 W/m² | - |
| 1777920205 | 23.33° C | 44% | 1010.5 hPa | 0 mm | - | 230 W/m² | - |
| 1777919901 | 23.33° C | 43% | 1010.6 hPa | 0 mm | - | 725 W/m² | - |
| 1777919598 | 22.78° C | 44% | 1010.5 hPa | 0 mm | - | 264 W/m² | - |
| 1777919296 | 22.22° C | 45% | 1010.7 hPa | 0 mm | - | 304 W/m² | - |
| 1777918994 | 22.78° C | 43% | 1010.8 hPa | 0 mm | - | 393 W/m² | - |
| 1777918690 | 22.78° C | 45% | 1010.7 hPa | 0 mm | - | 557 W/m² | - |
| 1777918388 | 22.22° C | 44% | 1010.7 hPa | 0 mm | - | 674 W/m² | - |
| 1777918087 | 22.78° C | 44% | 1010.8 hPa | 0 mm | - | 690 W/m² | - |
| 1777917785 | 22.78° C | 43% | 1011.1 hPa | 0 mm | - | 371 W/m² | - |
| 1777917483 | 22.78° C | 45% | 1010.9 hPa | 0 mm | - | 706 W/m² | - |
| 1777917179 | 22.22° C | 44% | 1010.9 hPa | 0 mm | - | 566 W/m² | - |
| 1777916877 | 21.67° C | 45% | 1011.1 hPa | 0 mm | - | 701 W/m² | - |
| 1777916575 | 21.67° C | 46% | 1011.1 hPa | 0 mm | - | 682 W/m² | - |
| 1777916271 | 22.22° C | 44% | 1011.1 hPa | 0 mm | - | 721 W/m² | - |
| 1777915968 | 21.67° C | 44% | 1011.1 hPa | 0 mm | - | 575 W/m² | - |
| 1777915665 | 21.67° C | 45% | 1011.3 hPa | 0 mm | - | 431 W/m² | - |
| 1777915361 | 21.67° C | 45% | 1011.2 hPa | 0 mm | - | 458 W/m² | - |
| 1777915057 | 21.67° C | 45% | 1011.5 hPa | 0 mm | - | 691 W/m² | - |
| 1777914754 | 21.11° C | 46% | 1011.3 hPa | 0 mm | - | 795 W/m² | - |
| 1777914452 | 21.11° C | 45% | 1011.7 hPa | 0 mm | - | 687 W/m² | - |
| 1777914149 | 21.11° C | 45% | 1011.4 hPa | 0 mm | - | 659 W/m² | - |
| 1777913845 | 21.11° C | 45% | 1011.8 hPa | 0 mm | - | 685 W/m² | - |
| 1777913541 | 20.56° C | 47% | 1012 hPa | 0 mm | - | 721 W/m² | - |
* Rain latest hour (hover to see other rain measurements)
** Current wind speed in m/s (hover to see current wind gust speed)